This is the latest recevied weather packets stored in our database for station/object KE8KMM. If no packets are shown the sender has not sent any weather packets the latest 10 day(s).
| Time | Temp. | Humidity | Pressure | Rain* | Wind** | Luminosity | Snow |
|---|---|---|---|---|---|---|---|
| 1777827998 | 15° C | 49% | 1015.6 hPa | 0 mm | - | 139 W/m² | - |
| 1777827695 | 15° C | 51% | 1015.4 hPa | 0 mm | - | 691 W/m² | - |
| 1777827392 | 15° C | 49% | 1015.8 hPa | 0 mm | - | 692 W/m² | - |
| 1777827088 | 14.44° C | 54% | 1015.9 hPa | 0 mm | - | 666 W/m² | - |
| 1777826785 | 14.44° C | 52% | 1015.7 hPa | 0 mm | - | 627 W/m² | - |
| 1777826482 | 14.44° C | 53% | 1015.9 hPa | 0 mm | - | 629 W/m² | - |
| 1777826178 | 14.44° C | 51% | 1015.8 hPa | 0 mm | - | 649 W/m² | - |
| 1777825876 | 13.89° C | 52% | 1015.8 hPa | 0 mm | - | 660 W/m² | - |
| 1777825573 | 14.44° C | 50% | 1016.4 hPa | 0 mm | - | 669 W/m² | - |
| 1777825271 | 13.89° C | 60% | 1016.3 hPa | 0 mm | - | 638 W/m² | - |
| 1777824968 | 13.89° C | 53% | 1016.3 hPa | 0 mm | - | 638 W/m² | - |
| 1777824663 | 13.89° C | 52% | 1016.3 hPa | 0 mm | - | 652 W/m² | - |
| 1777824361 | 12.78° C | 54% | 1016.3 hPa | 0 mm | - | 679 W/m² | - |
| 1777824056 | 13.33° C | 52% | 1016.5 hPa | 0 mm | - | 683 W/m² | - |
| 1777823753 | 12.78° C | 53% | 1016.5 hPa | 0 mm | - | 702 W/m² | - |
| 1777823450 | 13.89° C | 57% | 1016.5 hPa | 0 mm | - | 716 W/m² | - |
| 1777823147 | 13.33° C | 51% | 1016.5 hPa | 0 mm | - | 708 W/m² | - |
| 1777822844 | 12.78° C | 55% | 1016.7 hPa | 0 mm | - | 712 W/m² | - |
| 1777822543 | 12.22° C | 52% | 1016.5 hPa | 0 mm | - | 721 W/m² | - |
| 1777822240 | 12.78° C | 55% | 1016.6 hPa | 0 mm | - | 716 W/m² | - |
| 1777821937 | 12.22° C | 54% | 1016.8 hPa | 0 mm | - | 743 W/m² | - |
| 1777821635 | 12.78° C | 55% | 1016.7 hPa | 0 mm | - | 754 W/m² | - |
| 1777821333 | 12.22° C | 53% | 1016.9 hPa | 0 mm | - | 780 W/m² | - |
| 1777821030 | 12.22° C | 53% | 1016.9 hPa | 0 mm | - | 768 W/m² | - |
| 1777820726 | 11.67° C | 54% | 1016.9 hPa | 0 mm | - | 759 W/m² | - |
* Rain latest hour (hover to see other rain measurements)
** Current wind speed in m/s (hover to see current wind gust speed)